Location: F M Corners
(41.2198°N, 80.4709°W)
Time: 17:56:25
(UTC+00:00)

Cosmos 1939 Rocket - Pass Details

Date: 29 October 2020
Orbit: 532 x 584 km, 97.4° (Epoch: 28 November)

Event Time Altitude Azimuth Distance (km) Brightness Sun altitude
Rises 23:16:29 0° 158° (SSE) 2,729 6.2 -11.1°
Reaches altitude 10° 23:18:38 10° 154° (SSE) 1,830 5.3 -11.5°
Maximum altitude 23:22:32 59° 75° (ENE) 637 2.8 -12.2°
Drops below altitude 10° 23:26:23 10° 356° (N) 1,816 5.4 -12.9°
Sets 23:28:31 0° 353° (N) 2,706 6.4 -13.3°
